Back to catalog

STARLINK-34333

AliveCommunicationsVLEO
NORAD 64264·PAYLOAD·🇺🇸 United States

Launched Jun 4, 2025 from Vandenberg Space Force Base

Loading…

Next Passes (next 24 hours)

TLE

FreshSource: CelesTrak SupGP

Epoch: Sep 14, 2026, 21:18 UTC

1 64264C 25120J   26257.88798611  .00000225  00000+0  66616-5 0  2577
2 64264  53.1591 312.0578 0001150  91.0185 331.9329 15.34373006    18

Track STARLINK-34333 in real time with AllMySat

Download on the App Store